Location: ??????????
(54.4061°N, 22.6114°E)
Time: 00:55:15
(UTC+00:00)

STARLINK-39 - Pass Details

Date: 23 October 2019
Orbit: 548 x 551 km, 53.0° (Epoch: 14 November)

Event Time Altitude Azimuth Distance (km) Brightness Sun altitude
Rises 17:50:26 0° 281° (W) 2,722 8.6 -23.3°
Reaches altitude 10° 17:52:43 10° 276° (W) 1,827 7.3 -23.6°
Enters shadow 17:56:30 47° 212° (SSW) 733 4.3 -24.1°
